Time,TemperatureF,DewpointF,PressureIn,WindDirection,WindDirectionDegrees,WindSpeedMPH,WindSpeedGustMPH,Humidity,HourlyPrecipIn,Conditions,Clouds,dailyrainin,SolarRadiationWatts/m^2,SoftwareType,DateUTC
2013-05-10 00:12:00,38.0,25.0,-100.00,SSW,206,0.0,0.0,59,0.00,,,0.00,7.000000,,2013-05-10 08:12:00,
2013-05-10 00:42:00,35.0,24.0,-100.00,East,80,0.0,1.0,63,0.00,,,0.00,0.000000,,2013-05-10 08:42:00,
2013-05-10 01:43:00,36.0,25.0,-100.00,West,268,0.0,2.0,65,-99.99,,,0.00,0.000000,,2013-05-10 09:43:00,
2013-05-10 01:52:00,36.0,25.0,-100.00,West,268,0.0,2.0,65,-99.99,,,0.00,0.000000,,2013-05-10 09:52:00,
2013-05-10 02:02:00,36.0,25.0,-100.00,West,268,0.0,2.0,65,-99.99,,,0.00,0.000000,,2013-05-10 10:02:00,
2013-05-10 02:12:00,36.0,25.0,-100.00,West,268,0.0,2.0,65,-99.99,,,0.00,0.000000,,2013-05-10 10:12:00,
2013-05-10 02:33:00,36.0,25.0,-100.00,East,101,2.0,4.0,65,0.00,,,0.00,0.000000,,2013-05-10 10:33:00,
2013-05-10 02:42:00,36.0,25.0,-100.00,East,101,2.0,4.0,65,0.00,,,0.00,0.000000,,2013-05-10 10:42:00,
2013-05-10 02:52:00,36.0,25.0,-100.00,East,101,2.0,4.0,65,0.00,,,0.00,0.000000,,2013-05-10 10:52:00,
2013-05-10 03:02:00,36.0,25.0,-100.00,East,101,2.0,4.0,65,0.00,,,0.00,0.000000,,2013-05-10 11:02:00,
2013-05-10 03:12:00,36.0,25.0,-100.00,East,101,2.0,4.0,65,0.00,,,0.00,0.000000,,2013-05-10 11:12:00,
2013-05-10 05:42:00,33.0,25.0,-100.00,NE,56,0.0,3.0,73,-99.99,,,0.00,4.000000,,2013-05-10 13:42:00,
2013-05-10 05:52:00,33.0,25.0,-100.00,NE,56,0.0,3.0,73,-99.99,,,0.00,4.000000,,2013-05-10 13:52:00,
2013-05-10 06:02:00,33.0,25.0,-100.00,NE,56,0.0,3.0,73,-99.99,,,0.00,4.000000,,2013-05-10 14:02:00,
2013-05-10 06:11:00,33.0,25.0,-100.00,NE,56,0.0,3.0,73,-99.99,,,0.00,4.000000,,2013-05-10 14:11:00,
2013-05-10 06:18:00,-999.0,-99.9,-100.00,SE,132,0.0,3.0,82,0.00,,,0.00,25.000000,,2013-05-10 14:18:00,
2013-05-10 06:42:00,31.0,26.0,-100.00,SE,132,0.0,3.0,82,0.00,,,0.00,25.000000,,2013-05-10 14:42:00,
2013-05-10 06:52:00,31.0,26.0,-100.00,SE,132,0.0,3.0,82,0.00,,,0.00,25.000000,,2013-05-10 14:52:00,
2013-05-10 07:01:00,31.0,26.0,-100.00,SE,132,0.0,3.0,82,0.00,,,0.00,25.000000,,2013-05-10 15:01:00,
2013-05-10 07:42:00,42.0,30.0,-100.00,East,91,0.0,3.0,61,0.00,,,0.00,129.000000,,2013-05-10 15:42:00,
2013-05-10 07:53:00,42.0,30.0,-100.00,East,91,0.0,3.0,61,0.00,,,0.00,129.000000,,2013-05-10 15:53:00,
2013-05-10 08:02:00,42.0,30.0,-100.00,East,91,0.0,3.0,61,0.00,,,0.00,129.000000,,2013-05-10 16:02:00,
2013-05-10 08:12:00,42.0,30.0,-100.00,East,91,0.0,3.0,61,0.00,,,0.00,129.000000,,2013-05-10 16:12:00,
2013-05-10 08:43:00,46.0,27.0,-100.00,ENE,77,3.0,5.0,48,0.00,,,0.00,232.000000,,2013-05-10 16:43:00,
2013-05-10 08:52:00,46.0,27.0,-100.00,ENE,77,3.0,5.0,48,0.00,,,0.00,232.000000,,2013-05-10 16:52:00,
2013-05-10 09:02:00,46.0,27.0,-100.00,ENE,77,3.0,5.0,48,0.00,,,0.00,232.000000,,2013-05-10 17:02:00,
2013-05-10 09:12:00,46.0,27.0,-100.00,ENE,77,3.0,5.0,48,0.00,,,0.00,232.000000,,2013-05-10 17:12:00,
2013-05-10 09:42:00,51.0,29.0,-100.00,ENE,75,2.0,7.0,42,0.00,,,-99.99,366.000000,,2013-05-10 17:42:00,
2013-05-10 09:52:00,51.0,29.0,-100.00,ENE,75,2.0,7.0,42,0.00,,,-99.99,366.000000,,2013-05-10 17:52:00,
2013-05-10 10:10:00,-999.0,-99.9,-100.00,ENE,75,2.0,7.0,42,0.00,,,-99.99,366.000000,,2013-05-10 18:10:00,
2013-05-10 10:43:00,54.0,26.0,-100.00,SSE,165,3.0,6.0,34,0.00,,,0.00,387.000000,,2013-05-10 18:43:00,
2013-05-10 10:54:00,54.0,26.0,-100.00,SSE,165,3.0,6.0,34,0.00,,,0.00,387.000000,,2013-05-10 18:54:00,
2013-05-10 11:02:00,54.0,26.0,-100.00,SSE,165,3.0,6.0,34,0.00,,,0.00,387.000000,,2013-05-10 19:02:00,
2013-05-10 11:11:00,54.0,26.0,-100.00,SSE,165,3.0,6.0,34,0.00,,,0.00,387.000000,,2013-05-10 19:11:00,
2013-05-10 11:42:00,58.0,25.0,-100.00,SSW,201,2.0,7.0,28,0.00,,,0.00,656.000000,,2013-05-10 19:42:00,
2013-05-10 12:42:00,58.0,23.0,-100.00,SSW,203,2.0,8.0,26,0.00,,,0.00,759.000000,,2013-05-10 20:42:00,
2013-05-10 12:52:00,58.0,23.0,-100.00,SSW,203,2.0,8.0,26,0.00,,,0.00,759.000000,,2013-05-10 20:52:00,
2013-05-10 13:01:00,58.0,23.0,-100.00,SSW,203,2.0,8.0,26,0.00,,,0.00,759.000000,,2013-05-10 21:01:00,
2013-05-10 13:11:00,58.0,23.0,-100.00,SSW,203,2.0,8.0,26,0.00,,,0.00,759.000000,,2013-05-10 21:11:00,
2013-05-10 13:43:00,60.0,23.0,-100.00,SSW,209,3.0,9.0,24,0.00,,,0.00,829.000000,,2013-05-10 21:43:00,
2013-05-10 13:52:00,60.0,23.0,-100.00,SSW,209,3.0,9.0,24,0.00,,,0.00,829.000000,,2013-05-10 21:52:00,
2013-05-10 14:02:00,60.0,23.0,-100.00,SSW,209,3.0,9.0,24,0.00,,,0.00,829.000000,,2013-05-10 22:02:00,
2013-05-10 14:12:00,60.0,23.0,-100.00,SSW,209,3.0,9.0,24,0.00,,,0.00,829.000000,,2013-05-10 22:12:00,
2013-05-10 14:42:00,60.0,21.0,-100.00,WSW,242,2.0,8.0,22,0.00,,,0.00,858.000000,,2013-05-10 22:42:00,
2013-05-10 14:52:00,60.0,21.0,-100.00,WSW,242,2.0,8.0,22,0.00,,,0.00,858.000000,,2013-05-10 22:52:00,
2013-05-10 15:02:00,60.0,21.0,-100.00,WSW,242,2.0,8.0,22,0.00,,,0.00,858.000000,,2013-05-10 23:02:00,
2013-05-10 15:12:00,60.0,21.0,-100.00,WSW,242,2.0,8.0,22,0.00,,,0.00,858.000000,,2013-05-10 23:12:00,
2013-05-10 15:42:00,63.0,21.0,-100.00,SSE,164,2.0,6.0,20,0.00,,,0.00,843.000000,,2013-05-10 23:42:00,
2013-05-10 15:52:00,63.0,21.0,-100.00,SSE,164,2.0,6.0,20,0.00,,,0.00,843.000000,,2013-05-10 23:52:00,
2013-05-10 16:01:00,63.0,21.0,-100.00,SSE,164,2.0,6.0,20,0.00,,,0.00,843.000000,,2013-05-11 00:01:00,
2013-05-10 16:11:00,63.0,21.0,-100.00,SSE,164,2.0,6.0,20,0.00,,,0.00,843.000000,,2013-05-11 00:11:00,
2013-05-10 16:42:00,63.0,21.0,-100.00,WSW,246,3.0,6.0,20,0.00,,,0.00,783.000000,,2013-05-11 00:42:00,
2013-05-10 16:52:00,63.0,21.0,-100.00,WSW,246,3.0,6.0,20,0.00,,,0.00,783.000000,,2013-05-11 00:52:00,
2013-05-10 17:01:00,63.0,21.0,-100.00,WSW,246,3.0,6.0,20,0.00,,,0.00,783.000000,,2013-05-11 01:01:00,
2013-05-10 17:11:00,63.0,21.0,-100.00,WSW,246,3.0,6.0,20,0.00,,,0.00,783.000000,,2013-05-11 01:11:00,
2013-05-10 17:32:00,62.0,18.0,-100.00,SSW,212,1.0,6.0,18,0.00,,,0.00,671.000000,,2013-05-11 01:32:00,
2013-05-10 17:42:00,62.0,18.0,-100.00,SSW,212,1.0,6.0,18,0.00,,,0.00,671.000000,,2013-05-11 01:42:00,
2013-05-10 17:52:00,62.0,18.0,-100.00,SSW,212,1.0,6.0,18,0.00,,,0.00,671.000000,,2013-05-11 01:52:00,
2013-05-10 18:02:00,62.0,18.0,-100.00,SSW,212,1.0,6.0,18,0.00,,,0.00,671.000000,,2013-05-11 02:02:00,
2013-05-10 18:11:00,62.0,18.0,-100.00,SSW,212,1.0,6.0,18,0.00,,,0.00,671.000000,,2013-05-11 02:11:00,
2013-05-10 18:42:00,62.0,18.0,-100.00,SSW,204,2.0,6.0,18,0.00,,,0.00,501.000000,,2013-05-11 02:42:00,
2013-05-10 18:52:00,62.0,18.0,-100.00,SSW,204,2.0,6.0,18,0.00,,,0.00,501.000000,,2013-05-11 02:52:00,
2013-05-10 19:01:00,62.0,18.0,-100.00,SSW,204,2.0,6.0,18,0.00,,,0.00,501.000000,,2013-05-11 03:01:00,
2013-05-10 19:11:00,62.0,18.0,-100.00,SSW,204,2.0,6.0,18,0.00,,,0.00,501.000000,,2013-05-11 03:11:00,
2013-05-10 19:43:00,60.0,20.0,-100.00,SSW,199,1.0,6.0,21,0.00,,,0.00,341.000000,,2013-05-11 03:43:00,
2013-05-10 19:53:00,60.0,20.0,-100.00,SSW,199,1.0,6.0,21,0.00,,,0.00,341.000000,,2013-05-11 03:53:00,
2013-05-10 20:02:00,60.0,20.0,-100.00,SSW,199,1.0,6.0,21,0.00,,,0.00,341.000000,,2013-05-11 04:02:00,
2013-05-10 20:12:00,60.0,20.0,-100.00,SSW,199,1.0,6.0,21,0.00,,,0.00,341.000000,,2013-05-11 04:12:00,
2013-05-10 20:43:00,53.0,20.0,-100.00,SE,137,0.0,3.0,27,0.00,,,0.00,110.000000,,2013-05-11 04:43:00,
2013-05-10 20:52:00,53.0,20.0,-100.00,SE,137,0.0,3.0,27,0.00,,,0.00,110.000000,,2013-05-11 04:52:00,
2013-05-10 21:02:00,53.0,20.0,-100.00,SE,137,0.0,3.0,27,0.00,,,0.00,110.000000,,2013-05-11 05:02:00,
2013-05-10 21:11:00,53.0,20.0,-100.00,SE,137,0.0,3.0,27,0.00,,,0.00,110.000000,,2013-05-11 05:11:00,
2013-05-10 21:32:00,54.0,22.0,-100.00,SW,224,0.0,2.0,29,0.00,,,0.00,131.000000,,2013-05-11 05:32:00,
2013-05-10 21:42:00,54.0,22.0,-100.00,SW,224,0.0,2.0,29,0.00,,,0.00,131.000000,,2013-05-11 05:42:00,
2013-05-10 21:52:00,54.0,22.0,-100.00,SW,224,0.0,2.0,29,0.00,,,0.00,131.000000,,2013-05-11 05:52:00,
2013-05-10 22:02:00,54.0,22.0,-100.00,SW,224,0.0,2.0,29,0.00,,,0.00,131.000000,,2013-05-11 06:02:00,
2013-05-10 22:12:00,54.0,22.0,-100.00,SW,224,0.0,2.0,29,0.00,,,0.00,131.000000,,2013-05-11 06:12:00,
2013-05-10 22:42:00,44.0,24.0,-100.00,SW,224,0.0,0.0,45,0.00,,,0.00,50.000000,,2013-05-11 06:42:00,
2013-05-10 22:52:00,44.0,24.0,-100.00,SW,224,0.0,0.0,45,0.00,,,0.00,50.000000,,2013-05-11 06:52:00,
2013-05-10 23:01:00,44.0,24.0,-100.00,SW,224,0.0,0.0,45,0.00,,,0.00,50.000000,,2013-05-11 07:01:00,
2013-05-10 23:11:00,44.0,24.0,-100.00,SW,224,0.0,0.0,45,0.00,,,0.00,50.000000,,2013-05-11 07:11:00,
2013-05-10 23:42:00,37.0,21.0,-100.00,SW,224,0.0,0.0,52,0.00,,,0.00,8.000000,,2013-05-11 07:42:00,